Location: Peebles
(55.6412°N, 3.1714°W)
Time: 22:18:55
(UTC+01:00)

NOAA 16 DEB - Pass Details

Date: 11 July 2022
Orbit: 811 x 875 km, 98.7° (Epoch: 15 August)

Event Time Altitude Azimuth Distance (km) Brightness Sun altitude
Rises 23:15:48 0° 212° (SSW) 3,349 ? -8.1°
Reaches altitude 10° 23:18:51 10° 230° (SW) 2,432 ? -8.3°
Maximum altitude 23:22:34 19° 274° (W) 1,910 ? -8.5°
Drops below altitude 10° 23:26:21 10° 318° (NW) 2,473 ? -8.8°
Sets 23:29:30 0° 336° (NNW) 3,426 ? -9.0°
